Weather in Kozmodemyansk

Russia / Mari El Republic     56°20′39″N   46°34′05″E
temp.,
°C
wind,
m/s
gust,
m/s
humid.,
%
clouds,
%
prec.,
mm/h
press.,
hPa
HPBL,
m
25 february, thu
thu2500:00−22ssw349399 0.0 103485
03:00−22s4692100 0.0 1032146
06:00−20s51090100 0.0 1029280
09:00−18s61196100 0.6 1025362
12:00−15s71294100 0.9 1022518
15:00−14s71194100 1.9 1019619
18:00−13s4994100 0.9 1016508
21:00−13sse4894100 1.3 1015298
26 february, fri
fri2600:00−14se369596 0.1 1013176
03:00−14se369597 0.3 1014179
06:00−14se239698 0.1 101271
09:00−12se359597 0.2 1011167
12:00−8se579497 0.1 1009251
15:00−6se6109599 0.6 1005294
18:00−5se71196100 3.9 999268
21:00+1ssw39100100 7.9 995271
27 february, sat
sat2700:00+1w613100100 1.9 993514
03:00+1w71298100 2.3 993625
06:000w61198100 0.4 992575
09:000w61099100 1.4 993587
12:00−5nne5796100 0.9 995285
15:00−8n6893100 1.3 997517
18:00−11n51095100 0.4 1000593
21:00−13nnw41093100 0.6 1003375
28 february, sun
sun2800:00−16nnw499683 0.0 1004211
03:00−18nnw499777 0.0 1007174
06:00−20nnw479851 0.0 1009156
09:00−18nnw589545 0.0 1010295
12:00−14nnw589187 0.0 1012499
15:00−11nnw588993 0.1 1013673
18:00−14nnw3895100 0.1 1015244
21:00−16n3597100 0.1 1018115
1 march, mon
mon100:00−19nnw339953 0.0 101936
03:00−21nnw339930 0.0 102133
06:00−22nnw23990 0.0 102327
09:00−19nnw24961 0.0 1024156
12:00−13nw238861 0.0 1024344
15:00−10w348980 0.0 1023397
18:00−13sw479697 0.0 1022117
21:00−11sw5109598 0.0 1020219